Weather History for Greensboro, GA

Change the Weather History Date:

Saturday, July 13, 2013

  Actual Average (KDBN) Record (KDBN)
Temperature  
Mean Temperature 72 °F -  
Max Temperature 75 °F 93 °F 103 °F (1930)
Min Temperature 68 °F 69 °F 59 °F (1963)
Cooling Degree Days 6    
Growing Degree Days 22 (Base 50)    
Moisture  
Dew Point 68 °F    
Average Humidity 92    
Maximum Humidity 100    
Minimum Humidity 83    
Precipitation  
Precipitation 0.00 in - - ()
Sea Level Pressure  
Sea Level Pressure 30.00 in    
Wind  
Wind Speed 1 mph (ENE)    
Max Wind Speed 5 mph    
Max Gust Speed -    
Visibility 8 miles    
Events Rain , Thunderstorm    
Averages and records for this station are not official NWS values.
T = Trace of Precipitation, MM = Missing Value Source: NWS Daily Summary

Daily Weather History Graph

Daily Weather History Graph

Search for Another Location

Airport:

Trip Planner

Search our weather history database for the weather conditions in past years. The results will help you decide how hot, cold, wet, or windy it might be!

Date:

Astronomy

Jul. 13, 2013 Rise Set
Actual Time 6:32 AM EDT 8:44 PM EDT
Civil Twilight 6:03 AM EDT 9:12 PM EDT
Nautical Twilight 5:29 AM EDT 9:47 PM EDT
Astronomical Twilight 4:51 AM EDT 10:24 PM EDT
Moon 11:29 AM EDT (7/13) 11:43 PM EDT (7/13)
Length of Visible Light 15h 08m
Length of Day
14h 11m
Waxing Crescent, 25% of the Moon is Illuminated
Jul 13
Waxing Crescent
Jul 15
First Quarter
Jul 22
Full
Jul 29
Last Quarter
Aug 6
New

Hourly Weather History & Observations

Time (EDT) Temp. Dew Point Humidity Pressure Visibility Wind Dir Wind Speed Gust Speed Precip Events Conditions
12:15 AM 68.0 °F 64.4 °F 88% 29.95 in 10.0 mi Calm Calm - N/A   Mostly Cloudy
12:35 AM 68.0 °F 64.4 °F 88% 29.95 in 10.0 mi Calm Calm - N/A   Scattered Clouds
12:55 AM 68.0 °F 64.4 °F 88% 29.97 in 10.0 mi Calm Calm - N/A   Mostly Cloudy
1:15 AM 68.0 °F 64.4 °F 88% 29.96 in 10.0 mi Calm Calm - N/A   Overcast
1:35 AM 68.0 °F 66.2 °F 94% 29.96 in 10.0 mi Calm Calm - N/A   Overcast
1:55 AM 68.0 °F 66.2 °F 94% 29.95 in 10.0 mi Calm Calm - N/A Rain Light Rain
2:15 AM 68.0 °F 66.2 °F 94% 29.94 in 10.0 mi Calm Calm - N/A   Mostly Cloudy
2:35 AM 68.0 °F 66.2 °F 94% 29.94 in 7.0 mi Calm Calm - N/A   Scattered Clouds
2:55 AM 68.0 °F 66.2 °F 94% 29.93 in 7.0 mi Calm Calm - N/A   Scattered Clouds
3:15 AM 68.0 °F 66.2 °F 94% 29.93 in 7.0 mi Calm Calm - N/A   Mostly Cloudy
3:35 AM 68.0 °F 66.2 °F 94% 29.93 in 5.0 mi Calm Calm - N/A   Overcast
3:55 AM 68.0 °F 66.2 °F 94% 29.93 in 7.0 mi Calm Calm - N/A   Overcast
4:15 AM 68.0 °F 66.2 °F 94% 29.93 in 7.0 mi Calm Calm - N/A   Overcast
4:35 AM 68.0 °F 66.2 °F 94% 29.93 in 7.0 mi Calm Calm - N/A   Overcast
4:55 AM 68.0 °F 66.2 °F 94% 29.94 in 10.0 mi Calm Calm - N/A   Mostly Cloudy
5:15 AM 68.0 °F 66.2 °F 94% 29.95 in 7.0 mi Calm Calm - N/A   Overcast
5:35 AM 68.0 °F 66.2 °F 94% 29.95 in 10.0 mi North 3.5 mph - N/A   Overcast
5:55 AM 68.0 °F 66.2 °F 94% 29.95 in 10.0 mi NNE 3.5 mph - N/A   Overcast
6:15 AM 68.0 °F 66.2 °F 94% 29.96 in 10.0 mi NNE 3.5 mph - N/A   Overcast
6:35 AM 68.0 °F 66.2 °F 94% 29.96 in 10.0 mi Calm Calm - N/A   Overcast
6:55 AM 68.0 °F 66.2 °F 94% 29.97 in 10.0 mi ENE 3.5 mph - N/A Thunderstorm Overcast
7:15 AM 68.0 °F 66.2 °F 94% 29.98 in 7.0 mi Calm Calm - N/A   Overcast
7:35 AM 68.0 °F 66.2 °F 94% 29.98 in 7.0 mi Calm Calm - N/A   Overcast
7:55 AM 68.0 °F 66.2 °F 94% 29.99 in 7.0 mi Calm Calm - N/A   Overcast
8:15 AM 68.0 °F 66.2 °F 94% 29.99 in 7.0 mi Calm Calm - N/A   Overcast
8:35 AM 68.0 °F 66.2 °F 94% 30.00 in 10.0 mi Calm Calm - N/A   Overcast
8:55 AM 68.0 °F 68.0 °F 100% 30.01 in 10.0 mi Calm Calm - N/A   Overcast
9:15 AM 68.0 °F 68.0 °F 100% 30.01 in 10.0 mi Calm Calm - N/A   Overcast
9:35 AM 68.0 °F 66.2 °F 94% 30.02 in 10.0 mi East 3.5 mph - N/A   Overcast
9:55 AM 68.0 °F 68.0 °F 100% 30.02 in 7.0 mi NE 3.5 mph - N/A Thunderstorm Overcast
10:15 AM 68.0 °F 68.0 °F 100% 30.03 in 3.0 mi Calm Calm - N/A Rain Light Rain
10:35 AM 68.0 °F 68.0 °F 100% 30.03 in 5.0 mi Calm Calm - N/A   Overcast
10:55 AM 68.0 °F 68.0 °F 100% 30.04 in 7.0 mi Calm Calm - N/A   Overcast
11:15 AM 68.0 °F 68.0 °F 100% 30.04 in 5.0 mi Calm Calm - N/A   Overcast
11:35 AM 69.8 °F 68.0 °F 94% 30.04 in 7.0 mi Calm Calm - N/A   Overcast
11:55 AM 69.8 °F 68.0 °F 94% 30.05 in 7.0 mi Calm Calm - N/A   Overcast
12:15 PM 71.6 °F 68.0 °F 88% 30.05 in 10.0 mi ENE 3.5 mph - N/A   Overcast
12:35 PM 71.6 °F 68.0 °F 88% 30.05 in 10.0 mi Calm Calm - N/A   Overcast
12:55 PM 71.6 °F 68.0 °F 88% 30.05 in 10.0 mi Calm Calm - N/A   Overcast
1:15 PM 71.6 °F 68.0 °F 88% 30.04 in 10.0 mi ENE 3.5 mph - N/A   Overcast
1:35 PM 73.4 °F 68.0 °F 83% 30.04 in 10.0 mi Calm Calm - N/A   Overcast
1:55 PM 73.4 °F 69.8 °F 88% 30.03 in 10.0 mi East 3.5 mph - N/A   Overcast
2:15 PM 73.4 °F 69.8 °F 88% 30.03 in 10.0 mi Calm Calm - N/A   Mostly Cloudy
2:35 PM 71.6 °F 68.0 °F 88% 30.03 in 10.0 mi Calm Calm - N/A   Scattered Clouds
2:55 PM 71.6 °F 68.0 °F 88% 30.03 in 10.0 mi Calm Calm - N/A   Scattered Clouds
3:15 PM 73.4 °F 69.8 °F 88% 30.02 in 10.0 mi ENE 3.5 mph - N/A   Mostly Cloudy
3:35 PM 73.4 °F 69.8 °F 88% 30.01 in 10.0 mi Calm Calm - N/A Rain Light Rain
3:55 PM 73.4 °F 69.8 °F 88% 30.01 in 10.0 mi NE 4.6 mph - N/A Rain Light Rain
4:15 PM 73.4 °F 69.8 °F 88% 30.01 in 10.0 mi Calm Calm - N/A Rain Light Rain
4:35 PM 73.4 °F 69.8 °F 88% 30.00 in 10.0 mi Calm Calm - N/A Rain Light Rain
4:55 PM 73.4 °F 69.8 °F 88% 30.00 in 7.0 mi Calm Calm - N/A   Light Drizzle
5:15 PM 73.4 °F 69.8 °F 88% 30.00 in 10.0 mi Calm Calm - N/A   Overcast
5:35 PM 73.4 °F 69.8 °F 88% 29.99 in 10.0 mi Calm Calm - N/A   Scattered Clouds
5:55 PM 75.2 °F 69.8 °F 83% 29.99 in 10.0 mi Calm Calm - N/A   Scattered Clouds
6:15 PM 75.2 °F 69.8 °F 83% 30.00 in 10.0 mi East 3.5 mph - N/A   Mostly Cloudy
6:35 PM 75.2 °F 69.8 °F 83% 30.00 in 10.0 mi NE 3.5 mph - N/A   Mostly Cloudy
6:55 PM 73.4 °F 69.8 °F 88% 30.01 in 10.0 mi Calm Calm - N/A Rain Light Rain
7:15 PM 73.4 °F 69.8 °F 88% 30.02 in 10.0 mi East 3.5 mph - N/A Rain Light Rain
7:35 PM 71.6 °F 69.8 °F 94% 30.02 in 7.0 mi Calm Calm - N/A Rain Light Rain
7:55 PM 71.6 °F 69.8 °F 94% 30.01 in 7.0 mi Calm Calm - N/A   Scattered Clouds
8:15 PM 71.6 °F 69.8 °F 94% 30.02 in 7.0 mi Calm Calm - N/A   Scattered Clouds
8:35 PM 71.6 °F 69.8 °F 94% 30.03 in 7.0 mi Calm Calm - N/A   Scattered Clouds
8:55 PM 71.6 °F 69.8 °F 94% 30.03 in 5.0 mi Calm Calm - N/A   Clear
9:15 PM 69.8 °F 68.0 °F 94% 30.03 in 5.0 mi Calm Calm - N/A   Clear
9:35 PM 69.8 °F 68.0 °F 94% 30.03 in 4.0 mi Calm Calm - N/A   Clear
9:55 PM 69.8 °F 68.0 °F 94% 30.03 in 4.0 mi Calm Calm - N/A   Scattered Clouds
10:15 PM 69.8 °F 68.0 °F 94% 30.04 in 5.0 mi Calm Calm - N/A   Clear
10:35 PM 69.8 °F 68.0 °F 94% 30.04 in 7.0 mi Calm Calm - N/A   Scattered Clouds
10:55 PM 69.8 °F 68.0 °F 94% 30.05 in 5.0 mi Calm Calm - N/A   Mostly Cloudy
11:15 PM 69.8 °F 68.0 °F 94% 30.05 in 5.0 mi Calm Calm - N/A   Overcast
11:35 PM 69.8 °F 68.0 °F 94% 30.05 in 5.0 mi Calm Calm - N/A   Mostly Cloudy
11:55 PM 69.8 °F 68.0 °F 94% 30.05 in 5.0 mi Calm Calm - N/A   Mostly Cloudy